SAS77 ESSA-ESSV

Flight info

Callsign SAS77
Flight time 0h 40m
Altitude 20000
Route BABAP T316 GOTAL
Aircraft A320/M-SDE3FGHIJ1RWXYZ/ALB1

Departure

Time 2026-05-04 19:57
Airport Stockholm-Arlanda Airport (ESSA)

Arrival

Time 2026-05-04 20:37
Airport Visby Airport (ESSV)
Time Latitude Longitude Altitude Speed Heading
2026-05-04 19:30 59.65433 17.93498 112 ft 0 kts 76°
2026-05-04 19:46 59.65429 17.93465 110 ft 4 kts 75°
2026-05-04 19:46 59.65420 17.93415 110 ft 4 kts 59°
2026-05-04 19:47 59.65404 17.93379 108 ft 4 kts 17°
2026-05-04 19:47 59.65391 17.93376 109 ft 0 kts 345°
2026-05-04 19:51 59.65398 17.93372 110 ft 2 kts 345°
2026-05-04 19:51 59.65422 17.93360 110 ft 5 kts 345°
2026-05-04 19:51 59.65461 17.93341 112 ft 7 kts 349°
2026-05-04 19:51 59.65513 17.93343 112 ft 8 kts 341°
2026-05-04 19:52 59.65522 17.93229 112 ft 10 kts 259°
2026-05-04 19:52 59.65502 17.93068 109 ft 13 kts 256°
2026-05-04 19:52 59.65472 17.92889 112 ft 15 kts 248°
2026-05-04 19:52 59.65435 17.92719 110 ft 11 kts 240°
2026-05-04 19:53 59.65473 17.92585 107 ft 16 kts 334°
2026-05-04 19:53 59.65594 17.92498 104 ft 21 kts 345°
2026-05-04 19:53 59.65700 17.92442 104 ft 6 kts 345°
2026-05-04 19:53 59.65746 17.92421 105 ft 7 kts 354°
2026-05-04 19:54 59.65802 17.92436 106 ft 9 kts 11°
2026-05-04 19:54 59.65864 17.92460 107 ft 9 kts
2026-05-04 19:54 59.65908 17.92394 109 ft 8 kts 284°
2026-05-04 19:54 59.65916 17.92303 111 ft 6 kts 280°
2026-05-04 19:55 59.65923 17.92235 113 ft 4 kts 280°
2026-05-04 19:55 59.65927 17.92187 114 ft 3 kts 280°
2026-05-04 19:55 59.65928 17.92139 115 ft 4 kts 262°
2026-05-04 19:55 59.65884 17.92101 114 ft 10 kts 185°
2026-05-04 19:56 59.65846 17.92090 111 ft 2 kts 190°
2026-05-04 19:56 59.65770 17.92063 110 ft 34 kts 190°
2026-05-04 19:56 59.65302 17.91893 105 ft 99 kts 191°
2026-05-04 19:56 59.64454 17.91585 114 ft 146 kts 191°
2026-05-04 19:57 59.63427 17.91205 584 ft 151 kts 193°
2026-05-04 19:57 59.62391 17.90824 1189 ft 152 kts 198°
2026-05-04 19:57 59.61337 17.90473 1715 ft 161 kts 195°
2026-05-04 19:57 59.60161 17.90302 1968 ft 183 kts 192°
2026-05-04 19:58 59.59170 17.90204 2243 ft 197 kts 191°
2026-05-04 19:58 59.57751 17.90137 2640 ft 213 kts 186°
2026-05-04 19:58 59.56279 17.90988 3208 ft 234 kts 150°
2026-05-04 19:58 59.55235 17.93586 3727 ft 257 kts 110°
2026-05-04 19:59 59.54909 17.97038 4594 ft 253 kts 97°
2026-05-04 19:59 59.54745 18.00466 5431 ft 255 kts 87°
2026-05-04 19:59 59.55209 18.03888 5798 ft 272 kts 54°
2026-05-04 19:59 59.56498 18.06753 6414 ft 280 kts 37°
2026-05-04 20:00 59.58026 18.09193 7157 ft 286 kts 33°
2026-05-04 20:00 59.59610 18.11540 7953 ft 291 kts 33°
2026-05-04 20:00 59.61064 18.14392 8757 ft 301 kts 52°
2026-05-04 20:00 59.61924 18.18201 9539 ft 310 kts 78°
2026-05-04 20:01 59.61913 18.22528 10173 ft 319 kts 105°
2026-05-04 20:01 59.60954 18.26489 10401 ft 333 kts 132°
2026-05-04 20:01 59.59441 18.30089 10803 ft 346 kts 134°
2026-05-04 20:01 59.57851 18.33804 11450 ft 353 kts 135°
2026-05-04 20:02 59.56261 18.37534 12136 ft 358 kts 135°
2026-05-04 20:02 59.54676 18.41272 12811 ft 362 kts 136°
2026-05-04 20:02 59.53056 18.45110 13488 ft 367 kts 136°
2026-05-04 20:02 59.51413 18.49014 14058 ft 372 kts 136°
2026-05-04 20:03 59.49745 18.52970 14604 ft 378 kts 136°
2026-05-04 20:03 59.48051 18.56980 15159 ft 384 kts 136°
2026-05-04 20:03 59.46302 18.60973 15719 ft 385 kts 142°
2026-05-04 20:03 59.44236 18.64226 16267 ft 378 kts 156°
2026-05-04 20:04 59.41885 18.66423 16837 ft 370 kts 170°
2026-05-04 20:04 59.39405 18.67508 17357 ft 363 kts 183°
2026-05-04 20:04 59.36910 18.67516 17936 ft 356 kts 195°
2026-05-04 20:04 59.34516 18.66533 18460 ft 350 kts 204°
2026-05-04 20:05 59.32166 18.65222 19033 ft 353 kts 204°
2026-05-04 20:05 59.29794 18.63910 19534 ft 355 kts 204°
2026-05-04 20:05 59.27415 18.62603 19700 ft 355 kts 204°
2026-05-04 20:05 59.25001 18.61662 19719 ft 357 kts 194°
2026-05-04 20:06 59.22533 18.61265 19725 ft 356 kts 194°
2026-05-04 20:06 59.20068 18.60881 19725 ft 355 kts 194°
2026-05-04 20:06 59.17603 18.60495 19731 ft 355 kts 194°
2026-05-04 20:06 59.15140 18.60108 19731 ft 355 kts 194°
2026-05-04 20:07 59.12676 18.59719 19731 ft 355 kts 194°
2026-05-04 20:07 59.10210 18.59332 19724 ft 356 kts 193°
2026-05-04 20:07 59.07741 18.58948 19730 ft 357 kts 193°
2026-05-04 20:07 59.05268 18.58566 19739 ft 357 kts 193°
2026-05-04 20:08 59.02791 18.58181 19743 ft 357 kts 193°
2026-05-04 20:08 59.00319 18.57797 19744 ft 357 kts 193°
2026-05-04 20:08 58.97843 18.57409 19745 ft 357 kts 193°
2026-05-04 20:08 58.95369 18.57021 19748 ft 357 kts 193°
2026-05-04 20:09 58.92894 18.56633 19756 ft 357 kts 193°
2026-05-04 20:09 58.90414 18.56248 19723 ft 355 kts 193°
2026-05-04 20:09 58.87986 18.55885 19470 ft 346 kts 193°
2026-05-04 20:09 58.85607 18.55536 19225 ft 338 kts 193°
2026-05-04 20:10 58.83288 18.55190 18949 ft 331 kts 193°
2026-05-04 20:10 58.81012 18.54845 18704 ft 325 kts 193°
2026-05-04 20:10 58.78770 18.54498 18455 ft 323 kts 193°
2026-05-04 20:10 58.76535 18.54148 18235 ft 321 kts 193°
2026-05-04 20:11 58.74308 18.53796 17990 ft 320 kts 193°
2026-05-04 20:11 58.72090 18.53447 17722 ft 319 kts 193°
2026-05-04 20:11 58.69884 18.53104 17450 ft 318 kts 193°
2026-05-04 20:11 58.67686 18.52767 17180 ft 316 kts 193°
2026-05-04 20:12 58.65511 18.52436 16920 ft 311 kts 193°
2026-05-04 20:12 58.63368 18.52109 16550 ft 308 kts 193°
2026-05-04 20:12 58.61241 18.51780 16198 ft 306 kts 193°
2026-05-04 20:12 58.59127 18.51453 15834 ft 304 kts 193°
2026-05-04 20:13 58.57018 18.51128 15465 ft 302 kts 193°
2026-05-04 20:13 58.54930 18.50809 15114 ft 301 kts 193°
2026-05-04 20:13 58.52854 18.50492 14749 ft 299 kts 193°
2026-05-04 20:13 58.50788 18.50177 14396 ft 297 kts 193°
2026-05-04 20:14 58.48733 18.49862 14052 ft 296 kts 193°
2026-05-04 20:14 58.46684 18.49549 13700 ft 295 kts 193°
2026-05-04 20:14 58.44638 18.49236 13326 ft 294 kts 193°
2026-05-04 20:14 58.42608 18.48929 12965 ft 292 kts 193°
2026-05-04 20:15 58.40588 18.48628 12613 ft 290 kts 193°
2026-05-04 20:15 58.38589 18.48331 12263 ft 288 kts 193°
2026-05-04 20:15 58.36600 18.48033 11922 ft 286 kts 192°
2026-05-04 20:15 58.34623 18.47740 11578 ft 284 kts 192°
2026-05-04 20:16 58.32655 18.47451 11237 ft 283 kts 192°
2026-05-04 20:16 58.30692 18.47160 10889 ft 282 kts 192°
2026-05-04 20:16 58.28743 18.46867 10541 ft 281 kts 192°
2026-05-04 20:16 58.26796 18.46570 10209 ft 280 kts 192°
2026-05-04 20:17 58.24855 18.46276 9851 ft 279 kts 191°
2026-05-04 20:17 58.22911 18.46094 9474 ft 282 kts 188°
2026-05-04 20:17 58.20938 18.46064 9056 ft 284 kts 186°
2026-05-04 20:17 58.18970 18.46097 8648 ft 284 kts 186°
2026-05-04 20:18 58.16994 18.46147 8258 ft 284 kts 185°
2026-05-04 20:18 58.15041 18.46193 7938 ft 282 kts 185°
2026-05-04 20:18 58.13051 18.46226 7577 ft 281 kts 186°
2026-05-04 20:18 58.11097 18.46247 7166 ft 283 kts 186°
2026-05-04 20:19 58.09146 18.46263 6937 ft 277 kts 186°
2026-05-04 20:19 58.07237 18.46278 6673 ft 273 kts 186°
2026-05-04 20:19 58.05343 18.46290 6359 ft 271 kts 186°
2026-05-04 20:19 58.03465 18.46297 6021 ft 269 kts 185°
2026-05-04 20:20 58.01604 18.46301 5523 ft 267 kts 185°
2026-05-04 20:20 57.99742 18.46309 5067 ft 266 kts 185°
2026-05-04 20:20 57.97905 18.46320 4595 ft 269 kts 184°
2026-05-04 20:20 57.96025 18.46331 4235 ft 268 kts 184°
2026-05-04 20:21 57.94160 18.46344 3840 ft 269 kts 184°
2026-05-04 20:21 57.92315 18.46357 3749 ft 263 kts 185°
2026-05-04 20:21 57.88787 18.46378 3541 ft 243 kts 185°
2026-05-04 20:22 57.87130 18.46389 3440 ft 233 kts 185°
2026-05-04 20:22 57.85545 18.46399 3342 ft 223 kts 185°
2026-05-04 20:22 57.84001 18.46405 3243 ft 219 kts 186°
2026-05-04 20:22 57.82521 18.46299 3140 ft 204 kts 200°
2026-05-04 20:23 57.81228 18.45433 3011 ft 191 kts 208°
2026-05-04 20:23 57.80067 18.44565 2903 ft 175 kts 208°
2026-05-04 20:23 57.78978 18.43767 2674 ft 162 kts 208°
2026-05-04 20:23 57.77969 18.43037 2482 ft 148 kts 210°
2026-05-04 20:24 57.77032 18.42358 2278 ft 142 kts 210°
2026-05-04 20:24 57.76117 18.41695 2088 ft 140 kts 210°
2026-05-04 20:24 57.75206 18.41064 1903 ft 139 kts 210°
2026-05-04 20:24 57.74319 18.40366 1723 ft 138 kts 213°
2026-05-04 20:25 57.73424 18.39707 1544 ft 140 kts 208°
2026-05-04 20:25 57.72511 18.39105 1308 ft 138 kts 209°
2026-05-04 20:25 57.71610 18.38470 1094 ft 138 kts 210°
2026-05-04 20:25 57.70718 18.37809 995 ft 139 kts 208°
2026-05-04 20:26 57.69743 18.37082 849 ft 166 kts 208°
2026-05-04 20:26 57.68617 18.36213 935 ft 180 kts 206°
2026-05-04 20:26 57.67444 18.35357 1494 ft 187 kts 205°
2026-05-04 20:26 57.66167 18.34666 1767 ft 195 kts 202°
2026-05-04 20:27 57.64769 18.33951 2015 ft 223 kts 201°
2026-05-04 20:27 57.63291 18.32845 2175 ft 229 kts 221°
2026-05-04 20:27 57.62329 18.30605 2216 ft 221 kts 251°
2026-05-04 20:27 57.61833 18.27910 2214 ft 219 kts 257°
2026-05-04 20:28 57.61413 18.25172 2213 ft 219 kts 260°
2026-05-04 20:28 57.61382 18.22455 2207 ft 205 kts 284°
2026-05-04 20:28 57.61986 18.20114 2212 ft 201 kts 308°
2026-05-04 20:28 57.63100 18.18542 2210 ft 205 kts 334°
2026-05-04 20:29 57.64512 18.18091 2217 ft 212 kts
2026-05-04 20:29 57.65952 18.18824 2213 ft 216 kts 14°
2026-05-04 20:29 57.67368 18.19766 2208 ft 217 kts 13°
2026-05-04 20:29 57.68768 18.20692 2192 ft 214 kts 13°
2026-05-04 20:30 57.70170 18.21623 2204 ft 209 kts 13°
2026-05-04 20:30 57.71490 18.22501 2225 ft 197 kts 13°
2026-05-04 20:30 57.72760 18.23345 2234 ft 191 kts 13°
2026-05-04 20:30 57.74001 18.24163 2206 ft 189 kts 12°
2026-05-04 20:31 57.75235 18.24974 2201 ft 185 kts 12°
2026-05-04 20:31 57.76397 18.25746 2192 ft 173 kts 12°
2026-05-04 20:31 57.77518 18.26489 2205 ft 169 kts 12°
2026-05-04 20:31 57.78620 18.27217 2215 ft 166 kts 11°
2026-05-04 20:32 57.79711 18.27938 2214 ft 166 kts 12°
2026-05-04 20:32 57.80802 18.28659 2209 ft 166 kts 12°
2026-05-04 20:32 57.81882 18.29454 2199 ft 171 kts 23°
2026-05-04 20:32 57.82668 18.31158 2189 ft 175 kts 65°
2026-05-04 20:33 57.82710 18.33372 2193 ft 171 kts 109°
2026-05-04 20:33 57.82047 18.35122 2203 ft 162 kts 151°
2026-05-04 20:33 57.81377 18.35694 2209 ft 154 kts 176°
2026-05-04 20:33 57.80015 18.35905 2264 ft 154 kts 167°
2026-05-04 20:34 57.79059 18.36908 2341 ft 159 kts 154°
2026-05-04 20:34 57.78115 18.37974 2359 ft 158 kts 157°
2026-05-04 20:34 57.77146 18.38937 2306 ft 156 kts 165°
2026-05-04 20:34 57.76455 18.39333 2230 ft 153 kts 175°
2026-05-04 20:35 57.75419 18.39627 2019 ft 149 kts 184°
2026-05-04 20:35 57.74396 18.39685 1725 ft 146 kts 191°
2026-05-04 20:35 57.73412 18.39509 1458 ft 142 kts 199°
2026-05-04 20:35 57.72472 18.39056 1261 ft 137 kts 208°
2026-05-04 20:36 57.71582 18.38422 1122 ft 137 kts 209°
2026-05-04 20:36 57.70689 18.37774 959 ft 138 kts 208°
2026-05-04 20:36 57.69785 18.37127 735 ft 135 kts 205°
2026-05-04 20:36 57.68918 18.36514 531 ft 135 kts 203°
2026-05-04 20:37 57.68048 18.35885 404 ft 133 kts 202°
2026-05-04 20:37 57.67183 18.35269 225 ft 133 kts 202°
2026-05-04 20:37 57.66373 18.34687 158 ft 110 kts 200°
2026-05-04 20:37 57.65906 18.34355 157 ft 28 kts 200°
2026-05-04 20:38 57.65792 18.34275 158 ft 17 kts 201°
2026-05-04 20:38 57.65682 18.34195 159 ft 18 kts 201°
2026-05-04 20:38 57.65559 18.34105 154 ft 18 kts 201°
2026-05-04 20:38 57.65451 18.34026 156 ft 10 kts 201°
2026-05-04 20:39 57.65412 18.33928 160 ft 10 kts 256°
2026-05-04 20:39 57.65429 18.33791 161 ft 12 kts 307°
2026-05-04 20:39 57.65518 18.33754 159 ft 15 kts 18°
2026-05-04 20:39 57.65612 18.33823 162 ft 13 kts 21°
2026-05-04 20:40 57.65687 18.33876 159 ft 12 kts 21°
2026-05-04 20:40 57.65771 18.33936 159 ft 14 kts 21°
2026-05-04 20:40 57.65860 18.34000 159 ft 0 kts 21°
2026-05-04 20:40 57.65867 18.34005 159 ft 2 kts 21°
2026-05-04 20:41 57.65892 18.34023 159 ft 6 kts 22°
2026-05-04 20:41 57.65944 18.34065 159 ft 10 kts 24°
2026-05-04 20:41 57.66004 18.34083 159 ft 5 kts 318°
2026-05-04 20:41 57.66003 18.34059 159 ft 2 kts 261°
2026-05-04 20:42 57.65997 18.34024 159 ft 3 kts 259°
2026-05-04 20:42 57.66020 18.33985 159 ft 7 kts 330°
2026-05-04 20:42 57.66051 18.33957 159 ft 1 kts 336°
2026-05-04 20:42 57.66058 18.33952 159 ft 0 kts 337°
2026-05-04 20:43 57.66059 18.33951 159 ft 0 kts 337°